This demonstration page uses our WeatherBlox Daily Observations layout. Learn more.

Left ArrowRight Arrow

44.31136, -96.79839

Hourly Observations for August 17, 2018

Temp ( °F °C ) Dew Point ( °F °C ) Humidity (%) Winds ( mph kmh ) Pressure ( in mb ) Visibility ( mi km ) Precip ( " mm )
12:56 am 00:56 Clear 64 17.8 63 17.2 96 96 Calm 30.10 1019 10 16 0.00 0.00
1:24 am 01:24 Mostly Clear with Mist and Fog 63 17 63 17 100 100 NNW 3 6 30.06 1018 2 3 0.00 0.00
1:27 am 01:27 Mostly Cloudy with Mist and Fog 63 17 61 16 94 94 Calm 30.06 1018 1 2 0.00 0.00
1:29 am 01:29 Mostly Cloudy with Mist and Fog 63 17 61 16 94 94 Calm 30.06 1018 1 1 0.00 0.00
1:36 am 01:36 Mostly Cloudy with Fog 63 17 61 16 94 94 Calm 30.06 1018 1 1 0.00 0.00
1:56 am 01:56 Cloudy with Fog 62 16.7 61 16.1 96 96 WNW 3 6 30.12 1020 1 1 0.00 0.00
2:10 am 02:10 Cloudy with Mist and Fog 63 17 61 16 94 94 NW 5 7 30.06 1018 1 2 0.00 0.00
2:20 am 02:20 Cloudy with Fog 63 17 61 16 94 94 NW 3 6 30.06 1018 1 1 0.00 0.00
2:56 am 02:56 Cloudy with Fog 62 16.7 61 16.1 96 96 Calm 30.12 1020 1 1 0.00 0.00
3:14 am 03:14 Cloudy with Mist and Fog 63 17 63 17 100 100 Calm 30.06 1018 1 2 0.00 0.00
3:25 am 03:25 Cloudy with Fog 63 17 63 17 100 100 Calm 30.06 1018 1 1 0.00 0.00
3:35 am 03:35 Cloudy with Fog 63 17 63 17 100 100 Calm 30.06 1018 0 0 0.00 0.00
3:56 am 03:56 Cloudy with Fog 62 16.7 62 16.7 100 100 Calm 30.12 1020 0 0 0.00 0.00
4:14 am 04:14 Cloudy with Fog 63 17 63 17 100 100 Calm 30.06 1018 1 1 0.00 0.00
4:40 am 04:40 Cloudy with Mist and Fog 63 17 63 17 100 100 Calm 30.06 1018 1 2 0.00 0.00
4:42 am 04:42 Cloudy with Mist and Fog 63 17 63 17 100 100 Calm 30.06 1018 2 3 0.00 0.00
4:51 am 04:51 Cloudy with Mist and Fog 63 17 63 17 100 100 Calm 30.06 1018 1 2 0.00 0.00
4:56 am 04:56 Cloudy with Fog 63 17.2 63 17.2 100 100 Calm 30.12 1020 1 1 0.00 0.00
5:18 am 05:18 Cloudy with Mist and Fog 61 16 61 16 100 100 NNW 3 6 30.06 1018 1 1 0.00 0.00
5:28 am 05:28 Cloudy with Fog 61 16 61 16 100 100 NW 3 6 30.06 1018 0 0 0.00 0.00
5:56 am 05:56 Cloudy with Fog 62 16.7 62 16.7 100 100 Calm 30.13 1020 0 0 0.00 0.00
6:56 am 06:56 Cloudy with Fog 62 16.7 61 16.1 96 96 Calm 30.14 1021 5 8 0.00 0.00
7:56 am 07:56 Cloudy with Fog 65 18.3 64 17.8 97 97 Calm 30.15 1021 0 0 0.00 0.00
8:09 am 08:09 Cloudy with Mist and Fog 64 18 64 18 100 100 N 3 6 30.09 1019 1 1 0.00 0.00
8:13 am 08:13 Cloudy with Mist and Fog 64 18 64 18 100 100 N 3 6 30.09 1019 1 2 0.00 0.00
8:18 am 08:18 Cloudy with Mist and Fog 66 19 66 19 100 100 N 5 7 30.09 1019 3 5 0.00 0.00
8:30 am 08:30 Mostly Cloudy with Mist and Fog 66 19 66 19 100 100 N 3 6 30.09 1019 6 10 0.00 0.00
8:56 am 08:56 Mostly Sunny 67 19.4 67 19.4 100 100 N 3 6 30.15 1021 8 13 0.00 0.00
10:56 am 10:56 Mostly Sunny 74 23.3 68 20 82 82 NNE 6 9 30.15 1021 10 16 0.00 0.00
11:28 am 11:28 Mostly Cloudy 75 24 66 19 74 74 N 3 6 30.09 1019 10 16 0.00 0.00
11:56 am 11:56 Mostly Cloudy 76 24.4 66 18.9 72 72 N 8 13 30.15 1021 10 16 0.00 0.00
12:05 pm 12:05 Partly Cloudy 77 25 64 18 65 65 NE 8 13 30.06 1018 10 16 0.00 0.00
12:56 pm 12:56 Sunny 78 25.6 60 15.6 54 54 NNE 6 9 30.15 1021 10 16 0.00 0.00
1:56 pm 13:56 Sunny 78 25.6 64 17.8 62 62 E 5 7 30.14 1021 10 16 0.00 0.00
2:56 pm 14:56 Sunny 78 25.6 63 17.2 60 60 Calm 30.14 1021 10 16 0.00 0.00
3:56 pm 15:56 Sunny 77 25 63 17.2 62 62 NNE 7 11 30.14 1021 10 16 0.00 0.03
4:56 pm 16:56 Sunny 76 24.4 64 17.8 67 67 NE 6 9 30.13 1020 10 16 0.00 0.00
5:56 pm 17:56 Sunny 75 23.9 65 18.3 71 71 NNE 8 13 30.13 1020 10 16 0.00 0.00
6:56 pm 18:56 Sunny 74 23.3 66 18.9 76 76 NE 6 9 30.13 1020 10 16 0.00 0.00
7:56 pm 19:56 Sunny 72 22.2 66 18.9 82 82 NE 5 7 30.13 1020 10 16 0.00 0.00
8:56 pm 20:56 Clear 71 21.7 65 18.3 81 81 E 7 11 30.14 1021 10 16 0.00 0.00
9:56 pm 21:56 Clear 69 20.6 65 18.3 87 87 E 7 11 30.14 1021 10 16 0.00 0.00
10:56 pm 22:56 Clear with Mist and Fog 66 18.9 64 17.8 93 93 Calm 30.14 1021 5 8 0.00 0.00
11:18 pm 23:18 Clear with Mist and Fog 63 17 63 17 100 100 Calm 30.09 1019 2 2 0.00 0.00
11:22 pm 23:22 Clear with Mist and Fog 63 17 63 17 100 100 Calm 30.09 1019 1 1 0.00 0.00
11:29 pm 23:29 Mostly Cloudy with Mist and Fog 63 17 63 17 100 100 Calm 30.09 1019 1 1 0.00 0.00
11:36 pm 23:36 Mostly Cloudy with Mist and Fog 63 17 63 17 100 100 Calm 30.09 1019 1 2 0.00 0.00
11:51 pm 23:51 Partly Cloudy with Mist and Fog 61 16 61 16 100 100 Calm 30.12 1020 1 2 0.00 0.00
11:54 pm 23:54 Partly Cloudy with Mist and Fog 61 16 61 16 100 100 Calm 30.12 1020 3 5 0.00 0.00
11:56 pm 23:56 Partly Cloudy with Mist and Fog 61 16.1 60 15.6 97 97 Calm 30.15 1021 4 6 0.00 0.00

Powered by AerisWeather